Location: Dompnac
(44.5644°N, 4.1026°E)
Time: 11:26:10
(UTC+00:00)

Cosmos 2285 Rocket - Pass Details

Date: 19 September 2020
Orbit: 970 x 1000 km, 74.0° (Epoch: 29 October)

Event Time Altitude Azimuth Distance (km) Brightness Sun altitude
Rises 19:59:10 0° 198° (SSW) 3,650 6.9 -23.6°
Reaches altitude 10° 20:01:40 10° 198° (SSW) 2,708 6.2 -24.0°
Maximum altitude 20:07:58 88° 111° (ESE) 983 3.9 -25.0°
Drops below altitude 10° 20:14:20 10° 22° (NNE) 2,743 6.4 -26.0°
Sets 20:16:54 0° 22° (NNE) 3,699 7.1 -26.4°
